Starlink 1134

operational
NORAD ID: 45048 Int'l Des: 2020-006 Owner: SPXS Country: US Constellation: starlink
LEOCIRCULAR

About Starlink 1134

Description loading...

Live Position

Loading 3D Globe...

Upcoming Passes

Altitude History

Altitude vs Time

uPlot chart will show altitude changes over time

Two-Line Element Set

1 45048U 20006E 25353.13398243 .00010177 00000-0 32640-3 0 9994
2 45048 53.0379 258.2807 0004882 19.4555 340.6631 15.32943825324748
Epoch: Dec 19, 2025 • Age: 10 hours

Current Status

Altitude 484.6 km
Velocity 7.62 km/s
Sub-Earth Point -44.57°S, 169.43°W
Launch Date Jan 29, 2020
Age 5.8 years
Type internet

Technical Details

Classification Payload
Mass 260.00 kg
Dry Mass 248.00 kg
Total Mass 260.00 kg
Length 0.20 m
Diameter 2.80 m
Span 9.00 m
Shape Box + pan
Manufacturer SPXS
Bus Type Starlink
Phase Status In Orbit
Owner/State SPXS/US

Large Constellations

Loading constellations...